User: anonymous   Login
Location: Columbia
(38.9520°N, 92.3340°W)
Time: 05:55:14
(UTC-06:00)
Language:

CZ-4B R/B - Orbit

View from above orbital plane
View from above orbital plane
View from above satellite
View from above satellite

Ground track
Ground track

The orbit data is extracted from the following two-line orbital elements,

1 29093U 06015B   15 63.69268796  .00012755  00000-0  40005-3 0  9995
2 29093 097.4980 149.6851 0082646 063.7037 297.3184 15.29674572489315
Epoch (UTC): 04 March 2015 16:37:28
Eccentricity: 0.0082646
inclination: 97.4980°
perigee height: 420 km
apogee height: 533 km
right ascension of ascending node: 149.6851°
argument of perigee: 63.7037°
revolutions per day: 15.29674572
mean anomaly at epoch: 297.3184°
orbit number at epoch: 48931

The dashed part of the orbit path shows where the satellite is in the earth's shadow,  

DLR